CZ-6A DEB, 61406

Orbit data source: Space-Track

CZ-6A DEB, 61406 is space debris in LEO originally from a launch on Tue, 06 Aug 2024 UTC launched from the Taiyaun Space Center, China (TSC). Debris objects in space refer to the collection of defunct objects orbiting the Earth. Examples of debris include non-operational satellites, rocket bodies, and fragments generated from explosions, collisions, or faulty payload assembly.

Loading next visibility...
Identifier
61406, 2024-140XX
Orbit
LEO
Country
Flag of CNCN / PRC
Related business
Manufacturer
SAST
Mission
Spacecraft
Bus & Motor
Unknown
Mass
Unknown
Launch date (UTC)
2024-08-06 (2 years ago)
Launch vehicle
Unknown
Launch site
Taiyaun Space Center, China (TSC)
Object type
Payload
Rocket body
Debris
Shape & HBR
Unknown shape, 0.2 m
Radar Cross Section
Medium (>0.1 m² and <1 m²)

Expand to show TLE details & history
Last TLE update: 14 hours ago

TLE from 14 hours ago
0 CZ-6A DEB
1 61406U 24140XX  26171.26950463  .00000390  00000-0  22776-3 0  9999
2 61406  88.9991 276.4932 0127122 252.0289 106.7001 14.02719453 90829
Epoch: 2026-06-20T06:28Z
TLE epoch observation values (Epoch: 2026-06-20T06:28:05.200Z)
Latitude
-0.00005°
Longitude
-89.01502°
Altitude
915.028 km
Speed
7.38 km/s
True Right ascension
18h 25m 58s
True Declination
0° 00' 00"
Sunlit
Object was in full shadow at epoch
Visualization orbit readout
Latitude
Unknown
Longitude
Unknown
Altitude
Unknown
Speed
Unknown
Apparent Right ascension
Unknown
Apparent Declination
Unknown
Sunlit
N/A
Visualization observer readout
Local Sidereal Time
07:15:03
Azimuth
Unknown
Elevation
Unknown
Doppler factor
Unknown
Orbital elements
Apogee altitude
973.653 km
Perigee altitude
789.084 km
Semi-major axis
7,259.506 km
Eccentricity
0.01271
Inclination
88.9991°
RAAN
276.4932°
Arg. of periapsis
252.0289°
True anomaly
108.08889°
Mean anomaly
106.7001°
Eccentric anomaly
107.39514°
Mean motion
3.50899 °/min
Orbital period
102.59 mins
BSTAR
0.00022776
Loading maneuver chart data...
Computing Atmospheric mass density...
Loading historical data...
Loading historical data...
Loading historical data...
Loading historical data...
Loading historical data...
Loading historical data...
Loading historical data...

Documentation

Showing up to 5 results
|